Location: Bailleul
(50.3375°N, 2.8513°E)
Time: 17:16:09
(UTC+00:00)

Cosmos 1741 Rocket - Pass Details

Date: 19 April 2021
Orbit: 762 x 782 km, 74.0° (Epoch: 07 May)

Event Time Altitude Azimuth Distance (km) Brightness Sun altitude
Exits shadow 22:12:53 60° 98° (E) 889 4.1 -24.8°
Drops below altitude 10° 22:17:54 10° 30° (NNE) 2,331 6.9 -25.1°
Sets 22:20:18 0° 27° (NNE) 3,260 7.8 -25.3°
